Skip Page Navigation
NASA JPL Caltech
NASA Logo - Jet Propulsion Laboratory + View the NASA Portal
+ Near-Earth Object (NEO) Program
Search JPL
JPL Home Earth Solar System Stars & Galaxies Technology
JPL Solar System Dynamics
BODIES ORBITS EPHEMERIDES TOOLS PHYSICAL DATA DISCOVERY FAQ SITE MAP
JPL Small-Body Database Browser
Search: [ help ]  
12617 Angelusilesius (5568 P-L)
Classification: Main-belt Asteroid          SPK-ID: 2012617
Ephemeris | Orbit Diagram | Orbital Elements | Physical Parameters | Discovery Circumstances | Close-Approach Data ]

[ show orbit diagram ]
Orbital Elements at Epoch 2457000.5 (2014-Dec-09.0) TDB
Reference: JPL 13 (heliocentric ecliptic J2000)
 Element Value Uncertainty (1-sigma)   Units 
e .1244680684297879 7.7472e-08  
a 2.639388437992805 2.2783e-08 AU
q 2.310868857279925 2.0073e-07 AU
i 8.073812242547506 8.2203e-06 deg
node 30.51351815095707 3.9907e-05 deg
peri 321.8315592240976 5.0107e-05 deg
M 238.9345385728681 3.7617e-05 deg
tp 2457527.209501231785
(2016-May-18.70950123)
0.00016798 JED
period 1566.222258670946
4.29
2.0279e-05
5.552e-08
d
yr
n .2298524350595594 2.9761e-09 deg/d
Q 2.967908018705684 2.5618e-08 AU
  Orbit Determination Parameters
   # obs. used (total)      926  
   data-arc span      19608 days (53.68 yr)  
   first obs. used      1960-10-17  
   last obs. used      2014-06-24  
   planetary ephem.      DE431  
   SB-pert. ephem.      SB431-BIG16  
   condition code      0  
   fit RMS      .50523  
   data source      ORB  
   producer      Otto Matic  
   solution date      2014-Aug-13 14:20:53  

Additional Information
 Earth MOID = 1.31278 AU 
 T_jup = 3.371 
[ show covariance matrix ]

Ephemeris | Orbit Diagram | Orbital Elements | Physical Parameters | Discovery Circumstances | Close-Approach Data ]

Physical Parameter Table
Parameter Symbol Value Units Sigma Reference Notes
absolute magnitude H 13.4 mag n/a MPO256958  

12617 Angelusilesius           Discovered 1960 Oct. 17 by C. J. van Houten and I. van Houten-Groeneveld on Palomar Schmidt plates taken by T. Gehrels.
Angelus Silesius (Johannes Scheffler, 1624-1677) was a German baroque poet. His wisdom was expressed in short verses that are still read and used today. His best known collection starts with "Mensch werde wesentlich ..."
NOTE: some special characters may not display properly (any characters within {} are an attempt to place the proper accent above a character)
Reference: 20080819/MPCPages.arcLast Updated: 2008-08-25

[ show close-approach data ]
Alternate Designations
 5568 P-L = 1977 RY = 1986 XB2 
Ephemeris | Orbit Diagram | Orbital Elements | Physical Parameters | Discovery Circumstances | Close-Approach Data ]
ABOUT SSD CREDITS/AWARDS PRIVACY/COPYRIGHT GLOSSARY LINKS
FirstGov 2014-Sep-01 23:37 UT
(server date/time)  
NASA Home Page
Site Manager:   Donald K. Yeomans
Webmaster  Alan B. Chamberlin